User: anonymous   Login
Location: Luxembourg
(49.6117°N, 6.1300°E)
Time: 08:42:53
(UTC+01:00)
Language:

BUGSAT 1 - Orbit

View from above orbital plane
View from above orbital plane
View from above satellite
View from above satellite

Ground track
Ground track

The orbit data is extracted from the following two-line orbital elements,

1 40014U 14033E   19323.88621560 +.00000347 +00000-0 +36895-4 0  9993
2 40014 098.0336 275.0247 0030463 269.8042 089.9722 14.95348646295546
Epoch (UTC): 19 November 2019 21:16:09
Eccentricity: 0.0030463
inclination: 98.0336°
perigee height: 560 km
apogee height: 602 km
right ascension of ascending node: 275.0247°
argument of perigee: 269.8042°
revolutions per day: 14.95348646
mean anomaly at epoch: 89.9722°
orbit number at epoch: 29554

The dashed part of the orbit path shows where the satellite is in the earth's shadow,  

DLR